Location: Buchdorf
(48.7842°N, 10.8275°E)
Time: 13:11:11
(UTC+00:00)

SL-16 R/B - Pass Details

Date: 09 April 2020
Orbit: 842 x 846 km, 71.0° (Epoch: 02 June)

Event Time Altitude Azimuth Distance (km) Brightness Sun altitude
Rises 21:28:59 0° 334° (NNW) 3,415 6.6 -28.4°
Reaches altitude 10° 21:31:36 10° 342° (NNW) 2,477 5.5 -28.6°
Maximum altitude 21:36:57 41° 52° (NE) 1,221 3.0 -29.0°
Enters shadow 21:37:00 41° 53° (NE) 1,221 3.0 -29.0°
